Vertical_Velocity
-1 -0 -3 -4 -5 -1 -1 -9 -3 -4 -7 -26 -7 -7 -0 2 -4 -6 0 5 -0 -1 2 -1 3 11 4 1 -0 -7 4 2 2 -0 3 5 0 6 2 1 2 0 3 6
-2 -3 -3 -2 -5 -8 -8 -11 -7 -5 -12 -23 -10 0 -0 -2 -6 -4 -7 -3 -1 -1 4 -1 -5 3 2 1 -2 -5 -8 -1 0 8 7 2 -5 -5 5 1 2 2 3 6
-2 -4 -2 -4 -5 -5 -5 -11 -1 -2 -3 0 -1 -5 -4 -4 0 -1 -0 4 -0 -2 -0 2 -2 -0 -5 -3 -4 -1 -1 1 1 5 6 1 -3 -1 -3 1 2 5 1 -1
-3 -4 -4 -3 -2 -5 -5 -2 -3 -1 -11 -9 -5 -2 3 -1 -11 2 1 -2 1 -1 -4 -0 -4 -1 -1 4 -3 -7 -3 1 1 1 -0 3 8 2 -3 -0 4 0 7 -0
-3 -2 -3 -2 -3 1 -6 -6 -4 -1 -1 -3 -1 -3 -4 -5 1 -3 -2 2 2 2 3 5 -6 0 1 4 -1 -3 -2 1 -2 -1 1 1 -1 -4 -3 -1 -0 8 -1 -1
-3 -3 -3 -3 -1 -2 -10 -4 3 -2 -4 -4 -3 -5 -1 -3 -2 3 1 -2 0 2 1 1 1 2 -1 2 -1 -2 -1 -3 -4 0 -5 -1 4 -5 -1 6 2 2 6 3
-2 -3 -5 -5 -0 -1 -5 -3 0 -5 -2 -6 -2 -2 0 -2 -2 -1 1 -1 0 3 0 -0 -0 1 -0 -5 5 -0 -1 -2 -1 -1 -0 2 1 1 -1 2 2 6 4 5
-1 -1 -4 -4 -4 0 -3 -3 -3 -4 -1 0 -2 1 0 0 5 -1 -0 2 -1 -2 -1 -4 -4 9 7 4 -6 -2 -2 -3 -1 2 1 -2 -2 -6 -1 1 -1 2 3 4
-1 -0 -2 -2 -3 -0 1 -4 -1 -2 -3 -4 -2 -0 -5 -3 -4 1 3 1 -1 -2 -8 2 -0 1 -0 -5 3 -6 -3 -5 8 -1 0 3 6 1 2 5 8 2 3 7
-1 -1 -2 -2 -2 -2 -2 -3 -2 -1 -4 -3 -3 -3 -1 -3 0 -0 -7 -4 -2 -1 -1 -0 -5 5 -4 1 2 -7 -4 -6 1 -4 2 5 1 1 -2 2 -1 1 1 5
-2 -1 -3 -1 -0 -2 -1 -4 -2 -3 -1 -3 -2 -2 -1 -3 -2 -5 2 -5 -5 -3 -5 -4 -2 1 -4 2 -2 -2 3 -0 -0 1 -2 1 3 1 -9 1 4 2 -1 -2
-1 -2 -3 -3 -2 -1 0 -1 -0 -1 -0 -1 -1 -3 -1 0 -1 0 0 1 -2 -2 -2 0 -2 4 -1 -2 11 -4 6 -1 0 -2 -2 0 1 -1 0 2 2 5 0 -0
-2 -1 -3 -3 -2 1 0 -1 -1 -1 -1 -2 -1 -2 -3 1 -2 -1 -2 -2 -1 -2 -2 -1 -1 -2 -2 8 8 -2 -2 -1 0 -1 -2 -2 -1 -0 0 -1 0 3 2 3
-1 -1 1 -0 -0 -1 1 -1 -1 -2 -2 -2 -4 -2 -3 -1 1 -2 -1 0 -1 -1 -2 -2 -0 0 1 -2 -3 -0 -1 -0 0 -1 -1 -2 -3 -2 -2 -1 -1 -1 1 2
-1 -1 -1 -0 -0 -2 -1 -1 -2 -1 -2 -2 -2 -1 -3 -0 -0 0 -2 -0 0 -1 -3 -2 -1 -1 -1 -1 -1 -3 0 -1 -1 -3 0 -1 -2 -2 -2 -3 -3 -1 -2 -3
1 -0 -2 -1 -1 -2 -4 -1 1 2 0 -2 -2 -0 -1 -1 2 1 -1 -1 -0 0 -1 -2 -1 -1 -1 -1 -2 0 0 0 -1 -2 -1 -1 -1 -2 -2 -2 -3 -3 -2 -1
-1 -1 -0 -1 1 -0 -2 -1 -2 -2 -1 -3 -4 -2 -2 -2 0 3 0 -1 -1 -1 -0 -2 -1 -1 -0 -1 -1 -0 -1 -2 -1 -1 -2 -2 -1 -1 -1 -1 -1 -1 -2 -1
0 -1 1 3 2 2 -1 -2 -1 -1 -2 -3 -3 -5 -1 -3 -1 -5 -2 -0 0 0 -0 -0 -1 -1 -0 -3 -2 -1 -2 -1 -1 -1 -1 -1 -1 -1 -1 -0 -0 -0 -0 -1
-0 1 -0 1 -1 -0 -1 -2 -2 -2 -0 -2 -2 -0 -2 -2 -0 1 -3 0 -1 0 -1 -0 -1 -1 -4 -2 -1 -0 0 -0 -1 -1 -0 -1 -1 -1 -0 -0 -0 -1 -0 -0
-2 -1 -2 -5 -3 -1 -0 -1 -2 -1 -2 -1 -2 -3 -0 3 3 -5 -0 1 0 -0 -0 0 -1 -5 -1 -2 -1 -1 -1 -0 0 -1 -0 -0 -0 -1 -2 -2 -1 -1 -1 -1
-0 -5 -2 1 0 -2 -2 -1 -4 -2 -2 -1 -2 0 -1 1 -3 -2 0 -0 1 0 -0 -1 -1 -3 -2 -2 -1 -0 -0 -1 -1 -0 -0 -0 -0 0 -0 -1 -0 -1 -1 -0
-0 -2 1 -2 -2 -2 -2 -2 -1 -3 -2 -3 1 -1 -2 -4 -2 -2 -0 0 -0 -0 1 -0 -2 -0 -2 -2 -2 -0 -0 0 -0 -0 -0 0 -1 -0 1 0 -1 -0 1 -0
-1 -3 -2 1 -1 -4 -2 0 -3 -2 -1 -1 -1 -1 2 -6 -1 -0 1 1 1 1 0 -2 -1 -0 -1 -2 -3 -1 -0 -0 0 0 1 0 -0 -0 0 1 -0 1 0 -1
-3 -4 -1 -3 -1 -2 1 1 1 2 0 -1 1 -0 3 0 -2 1 0 1 0 1 -1 -0 2 -1 -1 -1 -0 -1 -1 -1 -0 0 -0 -0 -0 -0 -1 0 1 1 1 -1
-1 -3 -2 -3 -1 0 0 2 3 1 2 1 0 -2 2 0 -0 0 1 -0 -1 -1 2 4 2 2 1 -2 -1 0 -0 -0 -0 -0 -0 -1 -1 -1 -1 -0 1 0 0 -1
-3 -3 -1 4 1 2 0 1 1 1 2 1 2 -0 1 0 -2 0 -1 2 -3 -0 -1 -0 1 -1 0 1 -0 -1 -0 0 1 0 0 -0 -1 -1 -1 -1 1 0 1 -0
-5 -7 -0 -3 1 1 1 2 1 0 2 0 3 -1 2 4 1 -3 0 -2 8 6 5 4 1 1 1 -1 0 2 1 -0 -1 -1 -0 1 0 -0 -0 -1 0 1 1 0
Height
3081 3073 3064 3056 3048 3041 3032 3024 3017 3010 3004 2998 2996 2994 2992 2990 2986 2982 2979 2977 2972 2967 2963 2957 2954 2952 2949 2946 2943 2938 2935 2933 2931 2932 2930 2929 2927 2928 2927 2928 2929 2927 2926 2942
3081 3073 3064 3056 3049 3039 3030 3024 3017 3012 3006 3000 3000 2999 2994 2991 2987 2985 2981 2978 2975 2970 2966 2961 2958 2956 2953 2949 2946 2943 2940 2939 2935 2933 2936 2936 2933 2932 2931 2930 2929 2929 2931 2943
3081 3073 3065 3057 3050 3041 3033 3025 3021 3015 3010 3008 3005 3000 2996 2993 2990 2986 2984 2982 2975 2970 2967 2965 2961 2958 2954 2952 2949 2947 2945 2945 2944 2945 2945 2945 2941 2936 2935 2933 2934 2936 2939 2941
3081 3072 3064 3057 3051 3042 3036 3028 3024 3019 3015 3010 3008 3005 3001 2996 2990 2988 2986 2982 2978 2974 2969 2965 2962 2959 2956 2955 2952 2949 2948 2948 2947 2946 2944 2943 2941 2941 2940 2939 2940 2941 2943 2942
3081 3072 3065 3059 3051 3043 3038 3031 3028 3022 3019 3014 3011 3006 3002 2997 2994 2990 2986 2983 2979 2976 2973 2970 2966 2963 2960 2957 2953 2951 2950 2951 2948 2946 2944 2943 2942 2941 2942 2943 2942 2943 2944 2946
3081 3073 3065 3059 3052 3044 3038 3034 3029 3025 3022 3017 3014 3010 3005 2999 2995 2992 2988 2984 2981 2977 2975 2972 2969 2967 2964 2960 2957 2953 2951 2950 2949 2949 2946 2945 2948 2949 2949 2949 2948 2946 2947 2951
3080 3073 3066 3060 3053 3046 3041 3036 3032 3026 3024 3020 3017 3012 3008 3003 2997 2992 2989 2985 2982 2980 2976 2973 2971 2969 2966 2964 2962 2957 2955 2953 2952 2950 2948 2948 2955 2953 2953 2953 2952 2949 2950 2952
3080 3073 3066 3060 3054 3048 3042 3037 3033 3028 3024 3022 3018 3014 3009 3005 2999 2993 2989 2986 2983 2980 2977 2974 2972 2970 2970 2968 2965 2961 2959 2957 2956 2954 2951 2955 2956 2954 2955 2955 2955 2953 2953 2955
3080 3074 3067 3060 3054 3049 3043 3038 3034 3029 3026 3023 3019 3014 3009 3004 2998 2993 2990 2987 2984 2981 2978 2978 2976 2975 2974 2971 2969 2965 2962 2960 2959 2956 2954 2955 2959 2955 2954 2954 2956 2956 2956 2958
3079 3074 3067 3060 3055 3050 3044 3039 3035 3030 3026 3024 3020 3015 3011 3005 3000 2995 2990 2987 2985 2983 2982 2981 2979 2977 2976 2974 2972 2968 2965 2962 2962 2961 2959 2960 2958 2957 2956 2957 2965 2958 2959 2960
3079 3073 3067 3061 3055 3050 3045 3040 3036 3032 3027 3025 3021 3017 3012 3007 3002 2997 2994 2990 2986 2985 2984 2983 2983 2981 2979 2976 2975 2972 2970 2967 2965 2964 2963 2965 2961 2960 2960 2962 2960 2961 2961 2963
3078 3073 3066 3061 3055 3049 3044 3039 3036 3032 3028 3026 3022 3019 3015 3009 3004 3000 2996 2993 2989 2987 2986 2986 2984 2983 2980 2978 2975 2974 2973 2972 2970 2970 2969 2967 2966 2965 2964 2964 2964 2964 2964 2965
3077 3071 3065 3059 3054 3049 3044 3039 3035 3032 3028 3026 3022 3019 3015 3010 3005 3002 2998 2994 2991 2988 2987 2986 2985 2983 2981 2979 2977 2975 2972 2971 2970 2970 2968 2968 2967 2966 2966 2966 2966 2966 2966 2966
3076 3070 3064 3058 3052 3048 3043 3038 3034 3031 3028 3025 3023 3019 3015 3011 3007 3003 3000 2996 2992 2990 2987 2985 2984 2983 2981 2979 2977 2974 2973 2971 2969 2968 2967 2966 2966 2966 2965 2965 2966 2967 2968 2968
3073 3068 3062 3057 3050 3045 3041 3037 3033 3030 3030 3025 3021 3019 3016 3011 3007 3003 3000 2997 2994 2991 2988 2985 2984 2982 2980 2976 2973 2971 2970 2969 2968 2966 2965 2964 2963 2963 2963 2963 2964 2964 2966 2968
3071 3066 3061 3055 3048 3042 3038 3034 3032 3029 3026 3023 3021 3018 3016 3012 3008 3003 3000 2997 2994 2992 2989 2986 2983 2981 2980 2977 2974 2972 2969 2967 2964 2963 2961 2960 2960 2959 2959 2960 2960 2960 2961 2963
3068 3063 3058 3052 3046 3041 3037 3034 3030 3026 3024 3022 3020 3018 3014 3011 3007 3003 2999 2995 2993 2991 2988 2986 2983 2981 2980 2976 2974 2971 2969 2967 2965 2963 2961 2960 2959 2958 2958 2957 2956 2956 2956 2957
3064 3060 3055 3050 3043 3038 3034 3030 3027 3025 3023 3021 3019 3017 3013 3009 3005 3001 2996 2993 2990 2989 2987 2985 2983 2981 2979 2976 2974 2972 2969 2967 2965 2964 2962 2961 2960 2958 2957 2957 2956 2955 2954 2953
3061 3056 3051 3046 3040 3034 3031 3027 3025 3023 3025 3021 3019 3016 3012 3007 3004 2999 2994 2989 2987 2985 2984 2983 2982 2980 2977 2975 2973 2971 2969 2967 2965 2963 2962 2960 2959 2958 2957 2956 2955 2954 2953 2952
3057 3052 3048 3040 3036 3030 3028 3024 3024 3021 3020 3018 3017 3015 3012 3009 3002 2996 2993 2987 2985 2982 2982 2981 2978 2976 2976 2974 2971 2969 2967 2965 2963 2961 2960 2958 2957 2956 2955 2954 2953 2952 2951 2950
3053 3048 3044 3038 3032 3029 3025 3024 3024 3021 3019 3016 3015 3012 3009 3005 3001 2996 2992 2987 2984 2981 2980 2979 2976 2974 2974 2971 2969 2967 2965 2963 2960 2958 2956 2955 2954 2952 2951 2950 2949 2948 2947 2946
3049 3046 3039 3034 3031 3028 3027 3024 3022 3020 3017 3014 3011 3009 3005 3001 2997 2992 2988 2985 2982 2979 2977 2976 2972 2972 2971 2969 2967 2964 2962 2960 2958 2956 2954 2952 2950 2948 2947 2945 2943 2942 2941 2940
3045 3041 3036 3033 3031 3029 3024 3022 3020 3018 3015 3012 3008 3005 3002 2997 2995 2991 2987 2982 2979 2977 2974 2971 2969 2969 2968 2966 2963 2961 2959 2957 2955 2952 2950 2948 2945 2943 2941 2939 2937 2935 2934 2932
3040 3037 3033 3031 3028 3025 3022 3019 3017 3015 3011 3008 3004 3002 2999 2994 2992 2988 2984 2980 2977 2973 2970 2967 2967 2966 2964 2962 2960 2957 2955 2953 2951 2949 2946 2944 2941 2937 2935 2933 2930 2928 2926 2924
3037 3034 3029 3025 3024 3020 3017 3014 3011 3009 3005 3002 2999 2996 2994 2990 2987 2984 2980 2977 2972 2969 2967 2966 2965 2963 2960 2958 2956 2953 2951 2948 2946 2944 2941 2939 2936 2932 2928 2926 2924 2921 2919 2917
3031 3028 3025 3022 3018 3015 3011 3008 3005 3002 3000 2997 2995 2991 2987 2983 2981 2977 2974 2971 2967 2965 2964 2962 2960 2958 2956 2954 2951 2948 2945 2943 2940 2937 2935 2932 2930 2926 2923 2920 2917 2915 2913 2911
3023 3021 3018 3015 3011 3008 3004 3001 2998 2996 2994 2992 2990 2988 2985 2980 2974 2970 2968 2965 2964 2962 2960 2957 2955 2952 2950 2947 2945 2942 2939 2936 2933 2930 2928 2925 2922 2920 2916 2914 2911 2909 2908 2906